Tracking 29892 objects as of 21-Nov-2024
HD Live streaming from Space Station
objects crossing your sky now

COSMOS 1970 (GLONASS)

Track COSMOS 1970 (GLONASS) now!
COSMOS 1970 (GLONASS) is classified as:


NORAD ID: 19501
Int'l Code: 1988-085A
Perigee: 19,114.5 km
Apogee: 19,159.6 km
Inclination: 65.5 °
Period: 675.7 minutes
Semi major axis: 25508 km
RCS: 1.4312 m2 (large)
Launch date: September 16, 1988
Source: Commonwealth of Independent States (former USSR) (CIS)
Launch site: TYURATAM MISSILE AND SPACE COMPLEX (TTMTR)
Your satellite tracking list
Your tracking list is empty




NASA's NSSDC Master Catalog

Two Line Element Set (TLE):
1 19501U 88085A   24325.53006187 -.00000054  00000-0  00000+0 0  9990
2 19501  65.5482 333.9475 0008846  38.8321  67.4889  2.13101883281610
Source of the keplerian elements: AFSPC